Other Public Products
Issued by NWS Charleston, SC

Current Version | Previous Version | Graphics & Text | Print | Product List | Glossary On
Versions: 1 2 3 4 5 6 7 8 9 10 11 12 13 14 15 16 17 18 19 20 21 22 23 24 25 26 27 28 29 30 31 32 33 34 35 36 37 38 39 40 41 42 43 44 45 46 47 48 49 50
000
FPUS82 KCHS 211812
OPUCHS

TEST...KCHS/KSAV Gateway Observations...TEST
National Weather Service Charleston SC
200 PM EDT FRI JUL 21 2017

NOTE: "fair" indicates few or no clouds below 12,000 feet with no
significant weather and/or obstructions to visibility.

SCZ050-WAZ558-NCZ071-TXZ119-213-PAZ071-DCZ001-FLZ074-172-MI076-
NYZ176-178-MAZ016-IL014-TNZ027-NJZ106-GAZ044-MD014-211900-

...Gateway Observations for Charleston International...

CITY           SKY/WX    TMP DP  RH WIND       PRES   REMARKS
Chas Airport   MOSUNNY   91  75  59 W8        30.03F HX 101
6HR MIN TEMP:  77; 6HR MAX TEMP:  91;

Seattle        PTSUNNY   67  53  61 W7        30.16F
6HR MIN TEMP:  55; 6HR MAX TEMP:  67;

Charlotte      MOSUNNY   94  67  41 NW5       30.03F HX  97
6HR MIN TEMP:  79; 6HR MAX TEMP:  94;

Dallas DFW     MOSUNNY   97  72  44 S8        29.98F HX 105
6HR MIN TEMP:  82; 6HR MAX TEMP:  97;

Dallas Love    MOSUNNY   96  70  42 VRB6      29.99F HX 102
6HR MIN TEMP:  83; 6HR MAX TEMP:  96;

Philladelphia  CLOUDY    92  67  43 NW9G16    29.91F HX  95
6HR MIN TEMP:  81; 6HR MAX TEMP:  92;

Wash National  PTSUNNY   93  73  52 S9        29.93F HX 102
6HR MIN TEMP:  86; 6HR MAX TEMP:  94;

Baltimore      CLOUDY    90  71  53 S10       29.92F HX  96
6HR MIN TEMP:  83; 6HR MAX TEMP:  93;

Miami          TSTM      75  71  87 SW3       30.13F
6HR MIN TEMP:  72; 6HR MAX TEMP:  92; 6HR PCP:  2.25;

Detroit        PTSUNNY   86  68  54 SW5       29.98F
6HR MIN TEMP:  75; 6HR MAX TEMP:  86;

Newark         PTSUNNY   93  60  33 NW8G23    29.88F HX  93
6HR MIN TEMP:  79; 6HR MAX TEMP:  93;

Laguardia      PTSUNNY   90  67  46 NW13      29.87F HX  93
6HR MIN TEMP:  80; 6HR MAX TEMP:  91;

J F K          PTSUNNY   94  62  34 W13       29.88F HX  94
6HR MIN TEMP:  83; 6HR MAX TEMP:  94;

Boston Logan   MOSUNNY   88  58  36 W10       29.81F
6HR MIN TEMP:  76; 6HR MAX TEMP:  88;

Ft. Lauderdale CLOUDY    74  73  97 S5        30.12F
6HR MIN TEMP:  72; 6HR MAX TEMP:  90; 6HR PCP:  0.90;

Chicago O`Hare CLOUDY    86  71  60 S9        29.96F HX  91
6HR MIN TEMP:  75; 6HR MAX TEMP:  86;

Chicago Midway CLOUDY    85  71  63 SE8       29.97F HX  90
6HR MIN TEMP:  77; 6HR MAX TEMP:  86;

Houston Bush   PTSUNNY   92  72  51 CALM      30.02F HX  99
6HR MIN TEMP:  76; 6HR MAX TEMP:  92;

Houston Hobby  MOSUNNY   94  72  48 CALM      30.02F HX 102
6HR MIN TEMP:  80; 6HR MAX TEMP:  94;

Nashville      PTSUNNY   94  71  47 E3        30.05F HX 101
6HR MIN TEMP:  77; 6HR MAX TEMP:  95;

Atlanta        MOSUNNY   91  71  51 VRB5      30.05F HX  97
6HR MIN TEMP:  77; 6HR MAX TEMP:  92;


$$

GAZ044-118-TXZ119-213-NCZ071-DCZ001-MDZ014-506-PAZ021-071-NJZ106-
NYZ176-178-MAZ106-OHZ011-021-055-MIZ076-KYZ091-ILZ014-INZ047-
MNZ060-ONZ431-211900-

...Gateway Observations for Savannah International...

CITY           SKY/WX    TMP DP  RH WIND       PRES   REMARKS
Savannah Arpt  MOSUNNY   92  73  53 SW8       30.03F HX 101
6HR MIN TEMP:  75; 6HR MAX TEMP:  92;

Atlanta        MOSUNNY   91  71  51 VRB5      30.05F HX  97
6HR MIN TEMP:  77; 6HR MAX TEMP:  92;

Charlotte      MOSUNNY   94  67  41 NW5       30.03F HX  97
6HR MIN TEMP:  79; 6HR MAX TEMP:  94;

Dallas DFW     MOSUNNY   97  72  44 S8        29.98F HX 105
6HR MIN TEMP:  82; 6HR MAX TEMP:  97;

Houston Bush   PTSUNNY   92  72  51 CALM      30.02F HX  99
6HR MIN TEMP:  76; 6HR MAX TEMP:  92;

Wash National  PTSUNNY   93  73  52 S9        29.93F HX 102
6HR MIN TEMP:  86; 6HR MAX TEMP:  94;

Wash Dulles    PTSUNNY   91  70  49 SW6       29.95F HX  96
6HR MIN TEMP:  83; 6HR MAX TEMP:  91;

Baltimore      CLOUDY    90  71  53 S10       29.92F HX  96
6HR MIN TEMP:  83; 6HR MAX TEMP:  93;

Philadelphia   CLOUDY    92  67  43 NW9G16    29.91F HX  95
6HR MIN TEMP:  81; 6HR MAX TEMP:  92;

Newark         PTSUNNY   93  60  33 NW8G23    29.88F HX  93
6HR MIN TEMP:  79; 6HR MAX TEMP:  93;

Laguardia      PTSUNNY   90  67  46 NW13      29.87F HX  93
6HR MIN TEMP:  80; 6HR MAX TEMP:  91;

J F K          PTSUNNY   94  62  34 W13       29.88F HX  94
6HR MIN TEMP:  83; 6HR MAX TEMP:  94;

Boston         MOSUNNY   88  58  36 W10       29.81F
6HR MIN TEMP:  76; 6HR MAX TEMP:  88;

Pittsburg      CLOUDY    84  72  67 E6        29.99F
6HR MIN TEMP:  74; 6HR MAX TEMP:  86;

Akron          CLOUDY    87  69  54 NE6       29.98F HX  91
6HR MIN TEMP:  76; 6HR MAX TEMP:  89;

Cleveland      PTSUNNY   89  71  55 N10       29.98F HX  95
6HR MIN TEMP:  77; 6HR MAX TEMP:  90;

Cincinnati     CLOUDY    83  75  77 S8        30.04S HX  90
6HR MIN TEMP:  73; 6HR MAX TEMP:  83; 6HR PCP:  0.24;

Columbus       CLOUDY    75  72  90 SW9       29.99F
Detroit        PTSUNNY   86  68  54 SW5       29.98F
6HR MIN TEMP:  75; 6HR MAX TEMP:  86;

Chicago O`Hare CLOUDY    86  71  60 S9        29.96F HX  91
6HR MIN TEMP:  75; 6HR MAX TEMP:  86;

Minneapolis    CLOUDY    75  69  81 SE14      29.89S
6HR MIN TEMP:  72; 6HR MAX TEMP:  76; 6HR PCP: TRACE;

Indianapolis   MOSUNNY   85  71  63 S5        30.01F HX  90
6HR MIN TEMP:  72; 6HR MAX TEMP:  86; 6HR PCP:  0.12;

Toronto Canada PTSUNNY   84  57  39 NW14      29.92F

$$




USA.gov is the U.S. government's official web portal to all federal, state and local government web resources and services.